SCP
-0 -0 -0 -0 -0 -0 -0 -0 -0 -0 -0 0 0 0 0 0 -0 -0 -0 -0 -0 -0 -0 -0 0 0 -0 -0 0 0 0 0 -0 -0 -0 -0 -0 -0 -0 -0 -0 0 -0
-0 -0 -0 -0 -0 -0 -0 -0 -0 -0 0 0 0 0 0 0 -0 -0 -0 -0 -0 -0 -0 -0 0 0 0 0 0 0 0 0 -0 -0 -0 -0 -0 -0 -0 0 0 0 0
-0 -0 -0 -0 -0 -0 -0 -0 0 -0 0 0 0 0 0 0 -0 -0 -0 -0 -0 -0 -0 0 0 0 0 0 0 0 0 0 -0 -0 -0 -0 -0 -0 -0 0 0 -0 -0
-0 -0 -0 -0 -0 -0 -0 0 0 -0 0 -0 -0 0 -0 -0 -0 -0 -0 -0 -0 -0 -0 0 0 0 0 -0 0 0 0 -0 0 -0 -0 -0 -0 -0 -0 -0 -0 -0 -0
0 0 0 0 -0 -0 -0 -0 0 0 -0 -0 0 0 -0 -0 -0 -0 -0 -0 -0 -0 -0 -0 0 0 0 -0 0 0 0 0 0 0 -0 -0 0 0 0 -0 -0 -0 -0
0 0 0 0 0 0 0 0 0 0 0 0 0 0 -0 -0 -0 -0 -0 0 -0 -0 -0 -0 0 0 0 0 0 0 0 0 0 0 0 0 0 0 0 0 0 -0 -0
0 0 0 0 0 0 0 0 0 0 0 0 0 0 -0 -0 -0 -0 -0 -0 -0 -0 -0 0 0 0 0 0 0 0 0 0 0 0 0 0 0 0 0 0 0 0 0
0 0 0 0 0 0 0 0 0 0 0 0 0 0 0 -0 0 0 0 0 0 0 0 0 0 0 0 0 0 0 0 0 0 0 0 0 0 0 0 0 0 0 0
0 0 0 0 0 0 0 0 0 0 0 0 0 0 0 0 0 0 0 0 0 0 0 0 0 0 0 0 0 0 0 0 0 0 0 0 -0 0 0 0 0 0 0
0 0 0 0 0 0 0 0 0 0 0 0 0 0 0 0 0 0 0 0 0 0 0 0 0 0 0 0 0 0 0 0 0 0 0 0 0 0 0 0 0 0 0
0 0 0 0 0 0 0 0 0 0 0 0 0 0 0 0 0 0 0 0 0 0 0 0 0 0 0 0 0 0 0 0 0 0 0 0 0 0 0 0 0 0 0
0 0 0 0 0 0 0 0 0 0 0 0 0 0 0 0 0 0 0 0 0 0 0 0 0 0 0 0 0 0 0 0 0 0 0 0 0 0 0 0 0 0 0
0 0 0 0 0 0 0 0 0 0 0 0 0 0 0 0 0 0 0 0 0 0 0 0 0 0 0 0 0 0 0 0 0 0 0 0 0 0 0 0 0 0 0
0 0 0 0 0 0 0 0 0 0 0 0 0 0 0 0 0 0 0 0 0 0 0 0 0 0 0 0 0 0 0 0 0 0 0 0 0 0 0 0 0 0 0
0 0 0 0 0 0 0 0 0 0 0 0 0 0 0 0 0 0 0 0 0 0 0 0 0 0 0 0 0 0 0 0 0 0 0 0 0 0 0 0 0 0 0
0 0 0 0 0 0 0 0 0 0 0 0 0 0 0 0 0 0 0 0 0 0 0 0 0 0 0 0 0 0 0 0 0 0 0 0 0 0 0 0 0 0 0
0 0 0 0 0 0 0 0 0 0 0 0 0 0 0 0 0 0 0 0 0 0 0 0 0 0 0 0 0 0 0 0 0 0 0 0 0 0 0 0 0 0 0
0 0 0 0 0 0 0 0 0 0 0 0 0 0 0 0 0 0 0 0 0 0 0 0 0 0 0 0 0 0 0 0 0 0 0 0 0 0 0 0 0 0 0
0 0 0 0 0 0 0 0 0 0 0 0 0 0 0 0 0 0 0 0 0 0 0 0 0 0 0 0 0 0 0 0 0 0 0 0 0 0 0 0 0 0 0
0 0 0 0 0 0 0 0 0 0 0 0 0 0 0 0 0 0 0 0 0 0 0 0 0 0 0 0 0 0 0 0 0 0 0 0 0 0 0 0 0 0 0
0 0 0 0 0 0 0 0 0 0 0 0 0 0 0 0 0 0 0 0 0 0 0 0 0 0 0 0 0 0 0 0 0 0 0 0 0 0 0 0 0 0 0
0 0 0 0 0 1 0 0 0 0 0 0 0 0 0 0 0 0 0 0 0 0 0 0 0 0 0 0 0 0 0 0 0 0 0 0 0 0 0 0 0 0 0
0 0 0 0 0 1 0 0 0 0 0 0 0 0 0 0 0 0 0 0 0 0 0 0 0 0 0 0 0 0 0 0 0 0 0 0 0 0 0 0 0 0 0
0 0 0 0 1 1 0 0 0 0 0 0 0 0 0 0 0 0 0 0 0 0 0 0 0 0 0 0 0 0 0 0 0 0 0 0 0 0 0 0 0 0 0
0 0 0 0 1 1 1 0 0 0 0 0 0 0 0 0 0 0 0 0 0 0 0 0 0 0 0 0 0 0 0 0 0 0 0 0 0 0 0 0 0 0 0
0 0 1 0 1 1 0 0 0 0 0 0 0 0 0 0 0 0 0 0 0 0 0 0 0 0 0 0 0 0 0 0 0 0 0 0 0 0 0 0 0 0 0
Wind_Speed_500mb
40 48 46 41 37 35 33 34 30 24 25 21 20 23 32 24 26 29 25 32 21 8 8 13 14 21 26 27 27 27 28 26 28 26 25 23 23 24 19 15 18 15 15
46 49 47 41 39 37 33 30 33 31 25 23 21 32 37 28 30 35 38 29 21 7 7 6 11 18 21 23 24 24 25 25 26 25 25 23 20 21 18 14 9 11 10
49 48 46 39 38 35 30 29 32 32 30 26 27 35 38 31 30 25 18 17 12 4 6 1 11 15 18 20 21 21 21 20 21 21 20 18 16 17 15 12 10 9 10
47 44 44 42 37 30 29 28 30 30 30 26 35 45 33 24 25 24 23 16 10 9 7 8 14 16 18 18 17 15 16 17 17 15 14 14 12 14 12 10 10 9 9
44 42 42 42 36 30 29 29 28 28 27 32 48 40 33 32 25 25 18 13 14 10 10 13 16 14 14 14 14 12 11 11 12 13 12 9 9 12 9 7 9 10 13
40 40 43 39 33 30 29 32 31 28 28 40 43 34 29 32 22 22 16 17 15 10 16 16 16 13 12 10 9 8 6 6 8 7 7 6 5 6 7 7 9 11 12
39 37 40 37 34 31 33 36 33 31 30 33 36 29 32 25 19 15 13 14 15 14 18 17 15 13 11 8 4 2 2 3 4 4 4 4 5 7 7 8 10 11 11
40 36 38 36 33 32 37 42 38 35 31 33 35 37 30 22 16 10 7 14 16 17 18 17 15 13 9 6 4 4 4 4 4 5 5 6 7 8 9 10 10 10 10
32 35 33 36 36 34 41 42 39 35 30 28 30 43 34 22 17 13 11 14 15 15 16 15 14 12 10 8 8 8 8 8 8 8 8 9 9 9 10 11 11 12 12
37 36 35 32 35 38 43 38 32 31 29 24 22 34 34 26 22 18 16 17 18 17 17 16 15 13 12 12 12 12 12 11 10 10 11 10 10 10 11 12 13 13 14
39 40 36 33 34 36 42 41 36 33 29 27 27 31 32 29 24 20 21 19 19 18 18 18 17 15 14 15 16 15 14 12 10 10 11 12 11 12 13 14 14 14 14
38 42 40 40 35 38 47 40 41 42 39 35 35 33 30 27 26 25 24 22 21 21 20 19 17 17 17 18 18 16 13 13 13 13 14 14 14 15 15 15 16 15 16
38 45 45 44 44 47 50 50 48 45 43 39 38 37 31 27 25 25 25 24 23 22 22 21 19 19 19 19 17 15 14 14 14 15 17 16 16 16 16 16 16 16 14
40 45 46 45 54 52 49 60 59 54 45 43 45 42 34 28 24 24 27 26 23 21 23 23 24 23 21 19 17 16 15 15 15 17 18 18 17 17 16 17 17 17 13
41 47 48 45 51 53 55 52 64 59 51 48 46 44 38 31 26 27 26 28 25 24 25 26 27 26 24 21 20 18 17 18 19 20 20 21 21 21 21 22 22 19 15
32 46 52 52 50 54 54 56 57 58 54 50 52 49 42 36 31 31 32 32 31 28 28 27 27 27 25 25 23 22 21 21 22 21 23 24 25 26 28 28 28 23 17
34 38 53 55 52 60 59 58 56 58 59 56 58 53 47 41 34 31 32 36 34 32 30 29 27 26 25 25 24 25 24 25 24 25 26 27 29 30 31 31 28 22 17
43 38 45 54 60 60 66 61 54 59 62 59 60 58 49 45 39 35 34 34 34 35 34 31 30 29 28 28 27 26 26 28 28 28 29 29 31 28 25 23 19 14 15
46 45 41 55 61 62 66 62 59 61 65 64 64 63 53 49 43 40 39 36 35 38 37 34 33 32 27 26 27 29 28 29 30 31 29 28 20 16 14 13 10 12 13
47 48 44 50 60 56 63 68 62 64 67 68 70 62 52 51 47 45 44 39 38 42 42 41 38 33 32 26 27 32 30 29 31 32 27 21 15 11 11 9 8 10 12
48 48 49 47 59 59 65 69 70 64 60 60 60 60 53 53 51 48 48 46 43 45 44 41 39 38 36 33 30 26 25 27 35 32 22 15 11 7 7 8 9 9 10
44 47 48 48 54 65 61 67 67 60 55 52 53 54 53 53 50 48 43 45 47 46 45 44 45 43 40 30 25 20 16 15 15 15 14 11 11 9 9 11 13 12 11
41 50 48 49 54 56 58 58 67 63 55 54 58 53 50 47 48 53 48 47 48 49 49 49 49 47 41 34 39 29 14 17 10 19 19 17 16 14 18 19 18 16 16
35 46 46 46 52 54 45 57 62 72 59 55 54 53 53 52 50 51 51 53 51 53 54 53 52 54 52 53 46 51 48 29 17 15 25 24 26 22 23 21 17 9 9
23 34 36 39 46 48 40 46 60 66 56 58 59 63 59 59 64 67 65 62 62 60 58 59 57 58 63 63 66 71 61 58 49 37 16 20 22 21 17 15 5 3 4
6 17 22 32 36 41 35 39 48 47 54 49 50 40 34 45 49 54 61 65 66 73 74 68 66 66 68 72 74 75 65 49 46 42 33 24 31 28 21 19 12 8 7
Wind_Direction_500mb
182 177 176 182 180 176 177 184 186 181 178 171 165 157 144 146 158 154 140 145 137 103 41 44 75 99 104 102 100 101 105 103 100 99 97 96 100 100 107 110 88 68 68
175 176 180 184 184 179 182 190 197 195 186 179 168 154 153 142 139 148 145 154 145 170 11 35 97 114 110 105 103 103 100 99 97 96 97 91 94 93 95 97 81 65 46
175 175 182 184 183 183 191 192 195 194 193 185 173 160 162 157 166 162 176 182 173 248 304 221 127 121 117 116 111 105 100 97 94 93 93 81 84 92 87 79 68 54 43
176 175 179 184 185 189 189 193 191 183 182 182 170 160 166 175 180 192 213 223 252 271 258 182 146 129 125 126 123 114 103 94 90 95 86 84 76 86 78 65 56 50 40
175 175 185 185 189 190 188 188 182 176 172 166 155 162 174 179 192 208 216 225 247 244 197 174 153 138 128 125 125 120 110 94 89 82 82 82 68 56 42 37 21 11 29
178 179 190 186 190 189 184 173 177 170 169 164 163 170 184 190 191 211 227 232 232 223 182 170 160 152 143 136 126 117 104 86 72 67 70 54 49 19 34 8 1 3 17
186 183 190 192 195 191 183 177 182 181 174 178 182 176 184 195 203 218 211 212 205 179 172 169 165 169 168 163 154 145 88 50 52 27 5 6 353 350 341 342 344 351 1
192 186 191 196 201 195 186 180 185 191 198 198 203 204 201 215 212 206 209 187 191 179 172 173 173 180 192 207 226 262 284 310 322 325 326 316 316 326 327 337 337 343 345
193 190 192 200 202 197 188 187 190 196 201 200 199 206 206 212 223 243 227 200 194 189 186 187 193 203 214 231 251 268 282 292 299 293 302 302 299 306 318 325 331 332 327
199 196 196 198 200 198 193 191 199 203 195 194 193 194 202 222 241 243 230 213 204 202 203 207 213 223 240 255 265 278 290 294 291 290 298 285 284 290 301 314 325 326 321
211 204 200 200 199 199 196 192 198 206 206 202 196 202 219 233 237 241 230 218 212 212 216 221 228 238 248 261 271 278 287 289 287 282 285 286 286 291 298 305 311 315 318
218 215 217 210 206 203 196 199 201 207 207 208 214 218 226 231 240 236 229 223 217 218 222 229 239 247 255 263 271 274 275 278 282 281 281 283 283 290 294 298 303 311 316
233 227 217 214 215 213 203 199 203 208 210 215 215 221 231 236 240 233 229 223 225 229 236 238 247 254 260 261 261 268 276 276 279 284 285 285 286 286 288 293 298 306 314
249 238 231 220 225 219 215 211 210 212 217 213 212 222 236 235 242 241 233 227 228 237 237 242 252 255 258 254 256 263 270 274 279 283 282 282 281 281 286 292 299 303 300
255 245 233 236 230 226 222 220 214 215 216 212 220 229 240 241 245 242 238 232 238 248 246 251 257 258 256 253 258 261 267 272 277 279 276 278 277 279 285 290 293 295 287
278 249 242 233 233 229 226 222 219 214 211 212 222 232 242 245 253 249 242 239 244 250 250 255 263 256 252 254 260 263 267 275 277 275 275 275 275 280 284 284 283 283 274
274 265 249 240 240 230 232 227 223 216 213 217 221 232 239 245 252 253 248 245 245 246 250 257 258 252 252 257 260 265 271 276 275 273 275 275 281 283 281 280 277 270 252
266 261 250 250 244 239 233 228 223 219 218 221 223 231 240 241 248 251 251 248 245 246 250 254 250 253 254 259 264 269 274 277 275 274 272 279 288 285 280 277 268 244 233
261 253 248 243 245 244 232 232 224 224 223 224 228 233 237 241 245 251 251 249 246 246 249 248 247 250 253 261 265 268 272 275 276 276 274 281 277 274 271 269 248 233 230
261 245 243 239 241 243 240 230 231 228 227 229 231 234 238 241 245 249 251 251 251 246 246 247 249 251 254 258 267 273 274 275 275 275 269 259 259 257 257 249 228 220 225
268 240 238 229 235 237 239 229 229 230 231 231 235 238 239 244 246 248 251 250 247 246 248 249 249 249 253 256 267 276 277 271 278 265 244 226 230 225 215 215 219 224 238
274 240 235 228 228 232 232 238 231 231 237 234 232 235 239 243 246 242 253 254 248 249 250 249 249 251 253 246 249 263 276 265 264 213 199 207 214 219 222 218 222 238 240
277 242 224 227 225 224 229 228 233 233 238 234 233 231 234 236 244 242 247 255 257 254 254 253 252 252 250 252 247 233 234 236 197 224 220 208 203 203 206 206 214 220 227
280 241 219 223 219 227 227 227 233 229 232 236 235 231 234 238 240 239 247 253 259 256 255 256 256 254 254 251 251 243 232 225 213 211 214 216 214 215 215 211 200 217 259
300 238 220 212 212 220 221 228 238 239 236 239 239 234 235 241 238 242 242 245 249 254 259 259 261 259 258 258 258 257 243 237 232 234 214 176 153 99 91 74 99 35 266
309 203 213 211 204 207 217 226 238 243 241 254 237 224 233 249 252 251 253 248 251 253 254 254 258 261 265 268 261 262 246 229 235 234 200 154 119 99 96 106 87 83 97
Wind_Speed_850mb
40 48 46 41 37 35 33 34 30 24 25 21 20 23 32 24 26 29 25 32 21 8 8 13 14 21 26 27 27 27 28 26 28 26 25 23 23 24 19 15 18 15 15
46 49 47 41 39 37 33 30 33 31 25 23 21 32 37 28 30 35 38 29 21 7 7 6 11 18 21 23 24 24 25 25 26 25 25 23 20 21 18 14 9 11 10
49 48 46 39 38 35 30 29 32 32 30 26 27 35 38 31 30 25 18 17 12 4 6 1 11 15 18 20 21 21 21 20 21 21 20 18 16 17 15 12 10 9 10
47 44 44 42 37 30 29 28 30 30 30 26 35 45 33 24 25 24 23 16 10 9 7 8 14 16 18 18 17 15 16 17 17 15 14 14 12 14 12 10 10 9 9
44 42 42 42 36 30 29 29 28 28 27 32 48 40 33 32 25 25 18 13 14 10 10 13 16 14 14 14 14 12 11 11 12 13 12 9 9 12 9 7 9 10 13
40 40 43 39 33 30 29 32 31 28 28 40 43 34 29 32 22 22 16 17 15 10 16 16 16 13 12 10 9 8 6 6 8 7 7 6 5 6 7 7 9 11 12
39 37 40 37 34 31 33 36 33 31 30 33 36 29 32 25 19 15 13 14 15 14 18 17 15 13 11 8 4 2 2 3 4 4 4 4 5 7 7 8 10 11 11
40 36 38 36 33 32 37 42 38 35 31 33 35 37 30 22 16 10 7 14 16 17 18 17 15 13 9 6 4 4 4 4 4 5 5 6 7 8 9 10 10 10 10
32 35 33 36 36 34 41 42 39 35 30 28 30 43 34 22 17 13 11 14 15 15 16 15 14 12 10 8 8 8 8 8 8 8 8 9 9 9 10 11 11 12 12
37 36 35 32 35 38 43 38 32 31 29 24 22 34 34 26 22 18 16 17 18 17 17 16 15 13 12 12 12 12 12 11 10 10 11 10 10 10 11 12 13 13 14
39 40 36 33 34 36 42 41 36 33 29 27 27 31 32 29 24 20 21 19 19 18 18 18 17 15 14 15 16 15 14 12 10 10 11 12 11 12 13 14 14 14 14
38 42 40 40 35 38 47 40 41 42 39 35 35 33 30 27 26 25 24 22 21 21 20 19 17 17 17 18 18 16 13 13 13 13 14 14 14 15 15 15 16 15 16
38 45 45 44 44 47 50 50 48 45 43 39 38 37 31 27 25 25 25 24 23 22 22 21 19 19 19 19 17 15 14 14 14 15 17 16 16 16 16 16 16 16 14
40 45 46 45 54 52 49 60 59 54 45 43 45 42 34 28 24 24 27 26 23 21 23 23 24 23 21 19 17 16 15 15 15 17 18 18 17 17 16 17 17 17 13
41 47 48 45 51 53 55 52 64 59 51 48 46 44 38 31 26 27 26 28 25 24 25 26 27 26 24 21 20 18 17 18 19 20 20 21 21 21 21 22 22 19 15
32 46 52 52 50 54 54 56 57 58 54 50 52 49 42 36 31 31 32 32 31 28 28 27 27 27 25 25 23 22 21 21 22 21 23 24 25 26 28 28 28 23 17
34 38 53 55 52 60 59 58 56 58 59 56 58 53 47 41 34 31 32 36 34 32 30 29 27 26 25 25 24 25 24 25 24 25 26 27 29 30 31 31 28 22 17
43 38 45 54 60 60 66 61 54 59 62 59 60 58 49 45 39 35 34 34 34 35 34 31 30 29 28 28 27 26 26 28 28 28 29 29 31 28 25 23 19 14 15
46 45 41 55 61 62 66 62 59 61 65 64 64 63 53 49 43 40 39 36 35 38 37 34 33 32 27 26 27 29 28 29 30 31 29 28 20 16 14 13 10 12 13
47 48 44 50 60 56 63 68 62 64 67 68 70 62 52 51 47 45 44 39 38 42 42 41 38 33 32 26 27 32 30 29 31 32 27 21 15 11 11 9 8 10 12
48 48 49 47 59 59 65 69 70 64 60 60 60 60 53 53 51 48 48 46 43 45 44 41 39 38 36 33 30 26 25 27 35 32 22 15 11 7 7 8 9 9 10
44 47 48 48 54 65 61 67 67 60 55 52 53 54 53 53 50 48 43 45 47 46 45 44 45 43 40 30 25 20 16 15 15 15 14 11 11 9 9 11 13 12 11
41 50 48 49 54 56 58 58 67 63 55 54 58 53 50 47 48 53 48 47 48 49 49 49 49 47 41 34 39 29 14 17 10 19 19 17 16 14 18 19 18 16 16
35 46 46 46 52 54 45 57 62 72 59 55 54 53 53 52 50 51 51 53 51 53 54 53 52 54 52 53 46 51 48 29 17 15 25 24 26 22 23 21 17 9 9
23 34 36 39 46 48 40 46 60 66 56 58 59 63 59 59 64 67 65 62 62 60 58 59 57 58 63 63 66 71 61 58 49 37 16 20 22 21 17 15 5 3 4
6 17 22 32 36 41 35 39 48 47 54 49 50 40 34 45 49 54 61 65 66 73 74 68 66 66 68 72 74 75 65 49 46 42 33 24 31 28 21 19 12 8 7
Wind_Direction_850mb
182 177 176 182 180 176 177 184 186 181 178 171 165 157 144 146 158 154 140 145 137 103 41 44 75 99 104 102 100 101 105 103 100 99 97 96 100 100 107 110 88 68 68
175 176 180 184 184 179 182 190 197 195 186 179 168 154 153 142 139 148 145 154 145 170 11 35 97 114 110 105 103 103 100 99 97 96 97 91 94 93 95 97 81 65 46
175 175 182 184 183 183 191 192 195 194 193 185 173 160 162 157 166 162 176 182 173 248 304 221 127 121 117 116 111 105 100 97 94 93 93 81 84 92 87 79 68 54 43
176 175 179 184 185 189 189 193 191 183 182 182 170 160 166 175 180 192 213 223 252 271 258 182 146 129 125 126 123 114 103 94 90 95 86 84 76 86 78 65 56 50 40
175 175 185 185 189 190 188 188 182 176 172 166 155 162 174 179 192 208 216 225 247 244 197 174 153 138 128 125 125 120 110 94 89 82 82 82 68 56 42 37 21 11 29
178 179 190 186 190 189 184 173 177 170 169 164 163 170 184 190 191 211 227 232 232 223 182 170 160 152 143 136 126 117 104 86 72 67 70 54 49 19 34 8 1 3 17
186 183 190 192 195 191 183 177 182 181 174 178 182 176 184 195 203 218 211 212 205 179 172 169 165 169 168 163 154 145 88 50 52 27 5 6 353 350 341 342 344 351 1
192 186 191 196 201 195 186 180 185 191 198 198 203 204 201 215 212 206 209 187 191 179 172 173 173 180 192 207 226 262 284 310 322 325 326 316 316 326 327 337 337 343 345
193 190 192 200 202 197 188 187 190 196 201 200 199 206 206 212 223 243 227 200 194 189 186 187 193 203 214 231 251 268 282 292 299 293 302 302 299 306 318 325 331 332 327
199 196 196 198 200 198 193 191 199 203 195 194 193 194 202 222 241 243 230 213 204 202 203 207 213 223 240 255 265 278 290 294 291 290 298 285 284 290 301 314 325 326 321
211 204 200 200 199 199 196 192 198 206 206 202 196 202 219 233 237 241 230 218 212 212 216 221 228 238 248 261 271 278 287 289 287 282 285 286 286 291 298 305 311 315 318
218 215 217 210 206 203 196 199 201 207 207 208 214 218 226 231 240 236 229 223 217 218 222 229 239 247 255 263 271 274 275 278 282 281 281 283 283 290 294 298 303 311 316
233 227 217 214 215 213 203 199 203 208 210 215 215 221 231 236 240 233 229 223 225 229 236 238 247 254 260 261 261 268 276 276 279 284 285 285 286 286 288 293 298 306 314
249 238 231 220 225 219 215 211 210 212 217 213 212 222 236 235 242 241 233 227 228 237 237 242 252 255 258 254 256 263 270 274 279 283 282 282 281 281 286 292 299 303 300
255 245 233 236 230 226 222 220 214 215 216 212 220 229 240 241 245 242 238 232 238 248 246 251 257 258 256 253 258 261 267 272 277 279 276 278 277 279 285 290 293 295 287
278 249 242 233 233 229 226 222 219 214 211 212 222 232 242 245 253 249 242 239 244 250 250 255 263 256 252 254 260 263 267 275 277 275 275 275 275 280 284 284 283 283 274
274 265 249 240 240 230 232 227 223 216 213 217 221 232 239 245 252 253 248 245 245 246 250 257 258 252 252 257 260 265 271 276 275 273 275 275 281 283 281 280 277 270 252
266 261 250 250 244 239 233 228 223 219 218 221 223 231 240 241 248 251 251 248 245 246 250 254 250 253 254 259 264 269 274 277 275 274 272 279 288 285 280 277 268 244 233
261 253 248 243 245 244 232 232 224 224 223 224 228 233 237 241 245 251 251 249 246 246 249 248 247 250 253 261 265 268 272 275 276 276 274 281 277 274 271 269 248 233 230
261 245 243 239 241 243 240 230 231 228 227 229 231 234 238 241 245 249 251 251 251 246 246 247 249 251 254 258 267 273 274 275 275 275 269 259 259 257 257 249 228 220 225
268 240 238 229 235 237 239 229 229 230 231 231 235 238 239 244 246 248 251 250 247 246 248 249 249 249 253 256 267 276 277 271 278 265 244 226 230 225 215 215 219 224 238
274 240 235 228 228 232 232 238 231 231 237 234 232 235 239 243 246 242 253 254 248 249 250 249 249 251 253 246 249 263 276 265 264 213 199 207 214 219 222 218 222 238 240
277 242 224 227 225 224 229 228 233 233 238 234 233 231 234 236 244 242 247 255 257 254 254 253 252 252 250 252 247 233 234 236 197 224 220 208 203 203 206 206 214 220 227
280 241 219 223 219 227 227 227 233 229 232 236 235 231 234 238 240 239 247 253 259 256 255 256 256 254 254 251 251 243 232 225 213 211 214 216 214 215 215 211 200 217 259
300 238 220 212 212 220 221 228 238 239 236 239 239 234 235 241 238 242 242 245 249 254 259 259 261 259 258 258 258 257 243 237 232 234 214 176 153 99 91 74 99 35 266
309 203 213 211 204 207 217 226 238 243 241 254 237 224 233 249 252 251 253 248 251 253 254 254 258 261 265 268 261 262 246 229 235 234 200 154 119 99 96 106 87 83 97